Погода в Петрокаменском

Россия / Свердловская область     57°43′01″N   60°38′08″E
темп.,
°C
ветер,
м/с
пор.,
м/с
влажн.,
%
обл.,
%
осадки,
мм/ч
давл.,
гПа
погр.,
м
27 июля, вт
вт2723:00+11зюз378577 0.1 1015128
02:00+10зюз3109027 0.0 1014218
05:00+10юз412845 0.0 1012309
08:00+15зюз5136489 0.0 1010704
11:00+13з4108998 0.4 1010778
14:00+17зсз597055 0.9 10091371
17:00+19сз694115 1.1 10082115
20:00+14ссз595867 0.0 1010960
28 июля, ср
ср2823:00+8з38805 0.0 1011183
02:00+6з38965 0.0 1011189
05:00+5з3109642 0.0 1011247
08:00+11з41065100 0.0 1009797
11:00+10з697387 0.1 10091161
14:00+11зсз596588 0.1 10101106
17:00+14сз5749100 0.1 10091675
20:00+11зсз3759100 0.0 1010698
29 июля, чт
чт2923:00+9зсз38705 0.0 1011424
02:00+4з269074 0.0 1011102
05:00+5зюз398999 0.0 1011220
08:00+10з376699 0.0 1011345
11:00+17зюз484989 0.0 10081232
14:00+21з5940100 0.0 10072518
17:00+20з41048100 0.0 10061960
20:00+17зюз2762100 0.0 1006170
30 июля, пт
пт3023:00+13юз3774100 0.0 100597
02:00+12зюз2786100 0.2 1004129
05:00+13юз2490100 0.3 100276
08:00+13ю31197100 0.5 1001502
11:00+15зюз3997100 0.7 1000673
14:00+19з477581 0.3 1000992
17:00+19з4789100 1.7 1001699
20:00+17зсз2694100 1.3 1002322
31 июля, сб
сб3123:00+14зсз229810 1.9 100323
02:00+13зсз119813 0.0 100516
05:00+12зсз229819 0.0 100637
08:00+16з239233 0.0 1007230
11:00+22зюз346274 0.0 1007995
14:00+25з574999 0.1 10071617
17:00+26зюз464640 0.1 10061806
20:00+21юз2765100 0.0 1007146